User: anonymous   Login
Location: *
(2.5500°S, 65.9667°W)
Time: 05:07:18
(UTC+00:00)
Language:

Feng Yun 1-1 Rocket - Orbit

View from above orbital plane
View from above orbital plane
View from above satellite
View from above satellite

Ground track
Ground track

The orbit data is extracted from the following two-line orbital elements,

1 19468U 88080B   22017.61528878  .00000017  00000-0  38947-4 0  9992
2 19468  99.1784  48.5856 0072320  81.2163  27.0828 14.03531091708109
Epoch (UTC): 17 January 2022 14:46:00
Eccentricity: 0.0072320
inclination: 99.1784°
perigee height: 829 km
apogee height: 934 km
right ascension of ascending node: 48.5856°
argument of perigee: 81.2163°
revolutions per day: 14.03531091
mean anomaly at epoch: 27.0828°
orbit number at epoch: 70810

The dashed part of the orbit path shows where the satellite is in the earth's shadow,  

DLR